Lid_Strength_Index
8 8 9 10 10 10 11 11 11 11 11 12 12 12 12 12 11 11 12 12 12 12 12 12 12 11 11 11 10 10 9 8 6 16 16 15 16 16 16 15 15 15 14
9 10 10 11 11 12 12 13 12 12 12 13 12 12 13 13 13 13 14 14 13 14 13 13 13 12 13 13 12 13 13 13 14 16 17 17 17 17 17 17 16 15 16
11 11 12 12 13 13 13 13 13 13 13 13 13 14 14 14 14 14 14 14 15 15 15 15 14 13 14 14 14 14 14 14 14 15 17 17 17 17 17 17 16 17 16
12 13 13 14 14 14 14 14 14 14 14 14 14 14 14 14 15 15 15 15 15 16 16 16 15 15 15 15 15 15 15 15 15 16 17 18 18 18 18 18 18 18 19
13 14 14 14 15 15 14 15 15 15 15 14 15 15 15 14 15 15 16 16 17 17 17 17 16 16 15 15 15 16 15 16 16 16 17 18 18 18 18 19 19 19 19
14 14 15 16 16 16 15 16 16 15 16 15 15 15 15 15 15 15 16 17 18 18 19 19 19 18 17 16 16 15 16 17 17 17 18 19 19 19 19 20 20 20 20
15 16 15 16 16 17 16 16 16 16 16 16 16 16 16 16 15 16 16 18 18 18 18 19 19 19 19 19 17 17 17 16 16 18 19 20 20 20 20 20 20 21 21
17 17 16 16 17 16 17 17 17 16 16 16 17 16 16 16 15 16 16 18 18 18 18 18 18 18 18 19 19 19 19 17 18 18 19 19 20 19 19 20 20 21 21
17 17 17 17 17 17 18 17 17 17 17 17 17 17 17 16 15 15 17 18 18 17 17 17 17 17 15 16 18 19 19 19 16 15 16 16 16 16 18 19 22 23 25
17 17 17 17 17 17 17 17 17 17 18 17 17 17 17 16 14 14 16 17 17 17 17 16 15 16 15 16 18 18 20 19 19 19 18 18 18 17 17 19 20 23 24
17 17 17 17 17 17 17 18 18 18 18 19 18 17 17 16 14 13 14 16 16 17 17 17 16 13 14 14 15 17 18 18 19 19 19 19 19 18 19 18 18 19 22
19 19 19 19 18 18 18 18 18 19 18 19 19 18 18 16 14 13 13 14 14 16 16 16 15 13 13 13 14 13 14 17 21 21 21 20 20 19 19 20 20 20 19
21 20 21 20 19 18 19 18 18 18 18 19 18 19 19 16 15 11 11 12 13 15 15 14 12 12 13 13 12 13 18 21 21 22 21 20 20 19 20 21 20 21 21
22 21 20 20 20 20 18 18 19 19 19 19 19 19 16 15 14 13 13 13 12 13 12 14 13 13 12 14 16 16 17 18 19 20 20 20 20 22 22 20 21 22 24
22 21 21 21 21 20 18 19 18 19 18 16 15 15 15 14 13 11 11 13 12 12 14 14 15 15 17 18 18 18 19 19 20 20 22 23 22 22 22 23 24 27 26
21 21 22 21 21 20 17 15 11 11 11 11 12 12 13 12 13 11 12 12 12 10 18 19 19 19 20 20 21 21 21 22 21 22 24 24 24 24 25 25 26 28 28
24 22 23 22 22 22 19 17 17 13 13 13 13 13 13 14 14 14 14 14 15 18 23 22 22 22 22 22 23 23 23 23 24 24 25 25 25 26 26 26 25 26 27
28 25 25 24 23 19 17 17 16 16 18 20 18 17 15 16 16 17 17 21 27 25 27 27 27 25 25 26 27 27 27 27 28 27 27 27 28 27 28 28 26 26 26
26 25 26 26 21 18 18 18 19 21 23 28 28 24 24 19 20 20 21 30 33 33 34 33 32 32 31 32 31 32 31 30 29 30 29 29 28 28 29 27 26 24 25
29 26 28 28 25 23 23 24 26 28 29 31 31 31 32 31 33 33 32 34 34 35 35 34 34 35 34 34 34 34 33 32 31 31 30 30 29 29 28 29 28 28 29
31 30 28 29 29 29 29 29 29 30 32 33 30 25 24 34 36 36 36 34 35 35 35 35 35 36 36 35 34 32 31 27 27 27 26 26 27 28 28 26 28 29 28
32 33 33 33 32 30 32 31 32 33 34 33 32 28 24 34 35 36 36 36 36 36 35 36 35 34 32 31 31 30 29 27 27 26 25 24 24 25 26 28 30 31 31
32 33 33 34 33 32 33 35 35 35 35 36 34 34 35 37 37 38 38 38 38 35 34 33 32 29 29 28 28 27 27 25 25 27 25 24 24 25 27 27 29 31 32
34 34 33 35 35 35 35 36 35 34 36 37 38 37 37 38 38 37 37 37 34 33 31 30 28 27 26 25 26 27 28 26 26 25 26 25 23 22 24 25 24 26 27
36 35 35 35 36 36 36 36 36 38 38 37 38 38 38 37 37 37 35 34 32 30 28 27 27 27 27 27 26 27 26 24 26 26 27 28 22 20 21 25 23 22 24
37 36 37 37 37 38 38 37 38 38 38 37 38 39 38 36 35 34 32 31 29 28 27 26 26 27 27 27 27 26 24 20 21 21 21 19 20 19 20 21 24 22 22